TimeCDT,TemperatureF,Dew PointF,Humidity,Sea Level PressureIn,VisibilityMPH,Wind Direction,Wind SpeedMPH,Gust SpeedMPH,PrecipitationIn,Events,Conditions,WindDirDegrees,DateUTC
12:15 AM,69.8,59.0,68,29.91,10.0,SE,6.9,-,N/A,,Clear,130,2013-05-19 05:15:00
12:35 AM,68.0,59.0,73,29.92,10.0,ESE,5.8,-,N/A,,Clear,120,2013-05-19 05:35:00
12:55 AM,68.0,60.8,78,29.93,10.0,SE,6.9,-,N/A,,Clear,140,2013-05-19 05:55:00
1:15 AM,68.0,60.8,78,29.91,10.0,SE,5.8,-,N/A,,Clear,130,2013-05-19 06:15:00
1:35 AM,68.0,60.8,78,29.91,10.0,SE,8.1,-,N/A,,Clear,130,2013-05-19 06:35:00
1:55 AM,66.2,60.8,83,29.92,10.0,SE,6.9,-,N/A,,Clear,130,2013-05-19 06:55:00
2:15 AM,66.2,59.0,78,29.92,10.0,ESE,5.8,-,N/A,,Clear,120,2013-05-19 07:15:00
2:35 AM,64.4,59.0,83,29.92,10.0,ESE,5.8,-,N/A,,Clear,120,2013-05-19 07:35:00
2:55 AM,64.4,59.0,83,29.91,10.0,ESE,6.9,-,N/A,,Clear,120,2013-05-19 07:55:00
3:15 AM,66.2,59.0,78,29.91,10.0,ESE,5.8,-,N/A,,Clear,120,2013-05-19 08:15:00
3:35 AM,64.4,59.0,83,29.91,10.0,ESE,5.8,-,N/A,,Clear,120,2013-05-19 08:35:00
3:55 AM,64.4,59.0,83,29.92,10.0,SSE,3.5,-,N/A,,Clear,150,2013-05-19 08:55:00
4:15 AM,62.6,57.2,82,29.91,9.0,SE,3.5,-,N/A,,Clear,130,2013-05-19 09:15:00
4:35 AM,62.6,57.2,82,29.92,8.0,Calm,Calm,-,N/A,,Clear,0,2013-05-19 09:35:00
4:55 AM,62.6,57.2,82,29.92,8.0,ESE,4.6,-,N/A,,Clear,120,2013-05-19 09:55:00
5:15 AM,62.6,59.0,88,29.92,7.0,SE,4.6,-,N/A,,Clear,140,2013-05-19 10:15:00
5:35 AM,62.6,57.2,82,29.93,5.0,SE,3.5,-,N/A,,Clear,140,2013-05-19 10:35:00
5:55 AM,60.8,57.2,88,29.93,4.0,ESE,5.8,-,N/A,,Clear,110,2013-05-19 10:55:00
6:15 AM,60.8,57.2,88,29.92,3.0,East,6.9,-,N/A,,Clear,90,2013-05-19 11:15:00
6:35 AM,62.6,60.8,94,29.89,4.0,East,13.8,-,N/A,,Clear,80,2013-05-19 11:35:00
7:15 AM,68.0,62.6,83,29.91,5.0,ESE,8.1,-,N/A,,Clear,120,2013-05-19 12:15:00
7:35 AM,69.8,62.6,78,29.93,6.0,SE,4.6,-,N/A,,Partly Cloudy,140,2013-05-19 12:35:00
7:55 AM,71.6,62.6,73,29.93,8.0,SE,6.9,-,N/A,,Scattered Clouds,140,2013-05-19 12:55:00
8:15 AM,73.4,62.6,69,29.93,9.0,SSE,5.8,-,N/A,,Mostly Cloudy,160,2013-05-19 13:15:00
8:35 AM,73.4,62.6,69,29.93,10.0,SSE,6.9,-,N/A,,Mostly Cloudy,160,2013-05-19 13:35:00
8:55 AM,73.4,62.6,69,29.91,10.0,ESE,9.2,-,N/A,,Mostly Cloudy,120,2013-05-19 13:55:00
9:15 AM,75.2,62.6,65,29.92,10.0,East,5.8,-,N/A,,Mostly Cloudy,100,2013-05-19 14:15:00
9:55 AM,75.2,62.6,65,29.89,10.0,East,16.1,-,N/A,,Partly Cloudy,100,2013-05-19 14:55:00
10:15 AM,75.2,62.6,65,29.88,10.0,ESE,16.1,-,N/A,,Clear,110,2013-05-19 15:15:00
10:35 AM,78.8,62.6,57,29.88,10.0,SE,12.7,19.6,N/A,,Clear,130,2013-05-19 15:35:00
10:55 AM,80.6,62.6,54,29.89,10.0,SE,8.1,19.6,N/A,,Clear,130,2013-05-19 15:55:00
11:15 AM,80.6,62.6,54,29.87,10.0,SE,12.7,20.7,N/A,,Clear,130,2013-05-19 16:15:00
11:35 AM,80.6,62.6,54,29.87,10.0,ESE,12.7,20.7,N/A,,Clear,120,2013-05-19 16:35:00
11:55 AM,84.2,62.6,48,29.87,10.0,SE,12.7,21.9,N/A,,Scattered Clouds,140,2013-05-19 16:55:00
12:15 PM,84.2,62.6,48,29.85,10.0,SE,16.1,21.9,N/A,,Scattered Clouds,130,2013-05-19 17:15:00
12:35 PM,86.0,64.4,48,29.85,10.0,SE,13.8,21.9,N/A,,Mostly Cloudy,140,2013-05-19 17:35:00
12:55 PM,84.2,62.6,48,29.87,10.0,South,9.2,20.7,N/A,,Overcast,170,2013-05-19 17:55:00
1:15 PM,87.8,64.4,46,29.85,10.0,SSE,8.1,18.4,N/A,,Mostly Cloudy,160,2013-05-19 18:15:00
1:35 PM,87.8,66.2,49,29.84,-9999.0,SSE,9.2,18.4,N/A,,Partly Cloudy,160,2013-05-19 18:35:00
2:15 PM,87.8,66.2,49,29.79,-9999.0,SE,13.8,20.7,N/A,,Partly Cloudy,140,2013-05-19 19:15:00
2:35 PM,87.8,66.2,49,29.78,-9999.0,SE,10.4,18.4,N/A,,Partly Cloudy,130,2013-05-19 19:35:00
3:15 PM,89.6,66.2,46,29.74,-9999.0,ESE,15.0,20.7,N/A,,Partly Cloudy,120,2013-05-19 20:15:00
3:35 PM,89.6,66.2,46,29.73,-9999.0,ESE,16.1,24.2,N/A,,Clear,110,2013-05-19 20:35:00
3:55 PM,89.6,66.2,46,29.75,-9999.0,SE,15.0,20.7,N/A,,Clear,130,2013-05-19 20:55:00
4:15 PM,89.6,64.4,43,29.75,-9999.0,SSE,13.8,21.9,N/A,,Scattered Clouds,150,2013-05-19 21:15:00
4:35 PM,89.6,64.4,43,29.75,-9999.0,SSE,8.1,19.6,N/A,,Scattered Clouds,160,2013-05-19 21:35:00
4:55 PM,91.4,64.4,41,29.74,-9999.0,South,11.5,20.7,N/A,,Scattered Clouds,170,2013-05-19 21:55:00
5:15 PM,89.6,64.4,43,29.73,-9999.0,SE,10.4,17.3,N/A,,Partly Cloudy,140,2013-05-19 22:15:00
5:35 PM,89.6,64.4,43,29.72,-9999.0,SE,10.4,19.6,N/A,,Partly Cloudy,140,2013-05-19 22:35:00
5:55 PM,89.6,64.4,43,29.71,-9999.0,South,12.7,21.9,N/A,,Partly Cloudy,170,2013-05-19 22:55:00
6:15 PM,89.6,64.4,43,29.71,-9999.0,SSE,10.4,17.3,N/A,,Partly Cloudy,160,2013-05-19 23:15:00
6:35 PM,87.8,64.4,46,29.72,-9999.0,South,8.1,19.6,N/A,,Partly Cloudy,170,2013-05-19 23:35:00
6:55 PM,87.8,64.4,46,29.73,-9999.0,South,9.2,17.3,N/A,,Scattered Clouds,170,2013-05-19 23:55:00
7:15 PM,86.0,64.4,48,29.73,10.0,SSE,9.2,16.1,N/A,,Partly Cloudy,150,2013-05-20 00:15:00
7:35 PM,86.0,64.4,48,29.73,10.0,SSE,8.1,-,N/A,,Scattered Clouds,160,2013-05-20 00:35:00
7:55 PM,-9999,-9999,N/A,29.77,5.0,WSW,32.2,50.6,N/A,,Mostly Cloudy,250,2013-05-20 00:55:00
8:15 PM,66.2,60.8,83,29.80,10.0,West,13.8,34.5,0.04,Thunderstorm,Overcast,280,2013-05-20 01:15:00
8:35 PM,66.2,60.8,83,29.77,10.0,East,12.7,-,0.04,,Mostly Cloudy,100,2013-05-20 01:35:00
8:55 PM,66.2,60.8,83,29.74,10.0,East,6.9,-,0.04,,Scattered Clouds,80,2013-05-20 01:55:00
9:15 PM,66.2,60.8,83,29.73,10.0,East,16.1,-,N/A,,Partly Cloudy,100,2013-05-20 02:15:00
9:35 PM,66.2,62.6,88,29.74,10.0,SE,11.5,-,N/A,,Clear,130,2013-05-20 02:35:00
9:55 PM,66.2,62.6,88,29.73,10.0,East,12.7,-,N/A,,Partly Cloudy,100,2013-05-20 02:55:00
10:15 PM,66.2,62.6,88,29.73,10.0,East,13.8,-,N/A,,Clear,100,2013-05-20 03:15:00
10:35 PM,66.2,60.8,83,29.72,10.0,East,12.7,-,N/A,,Clear,100,2013-05-20 03:35:00
11:15 PM,69.8,60.8,73,29.75,10.0,ESE,8.1,-,N/A,,Mostly Cloudy,110,2013-05-20 04:15:00
11:35 PM,68.0,60.8,78,29.75,10.0,ESE,6.9,-,N/A,,Mostly Cloudy,110,2013-05-20 04:35:00
11:55 PM,69.8,62.6,78,29.73,10.0,ESE,8.1,-,N/A,,Overcast,110,2013-05-20 04:55:00